contact:dominique.lefevre@mio.osupytheas.fr, maurice.libes@osupytheas.fr, didier.mallarino@osupytheas.fr
Project:EMSO http://www.emso-fr.org/EMSO-France
Depth: 2436.0 m
Title:EMSO Ligure Ouest : Data MII capteur MICROCAT
DateTime_Computer,Latitude,Longitude,Temperature,Conductivity,Pressure,DateTime_Instrument
DateTime_Computer,Latitude,Longitude,degC,S m-1,dbar,DateTime_Instrument
2023-06-16T00:02:27Z,42.805,6.029,13.3028,4.60084,2470.624,2023-6-16T02:04:41Z
2023-06-16T00:05:30Z,42.805,6.029,13.3031,4.60086,2470.684,2023-6-16T02:07:44Z
2023-06-16T00:08:33Z,42.805,6.029,13.3027,4.60085,2470.67,2023-6-16T02:10:47Z
2023-06-16T00:11:36Z,42.805,6.029,13.3029,4.60092,2470.684,2023-6-16T02:13:50Z
2023-06-16T00:14:39Z,42.805,6.029,13.3026,4.60086,2470.646,2023-6-16T02:16:53Z
2023-06-16T00:17:42Z,42.805,6.029,13.3032,4.60087,2470.684,2023-6-16T02:19:56Z
2023-06-16T00:20:45Z,42.805,6.029,13.3024,4.60083,2470.707,2023-6-16T02:22:59Z
2023-06-16T00:23:48Z,42.805,6.029,13.3029,4.60083,2470.67,2023-6-16T02:26:03Z
2023-06-16T00:26:51Z,42.805,6.029,13.3031,4.60084,2470.707,2023-6-16T02:29:06Z
2023-06-16T00:29:54Z,42.805,6.029,13.3027,4.60084,2470.693,2023-6-16T02:32:09Z
2023-06-16T00:32:58Z,42.805,6.029,13.3029,4.60084,2470.707,2023-6-16T02:35:12Z
2023-06-16T00:36:01Z,42.805,6.029,13.3030,4.60084,2470.661,2023-6-16T02:38:15Z
2023-06-16T00:39:04Z,42.805,6.029,13.3030,4.60087,2470.67,2023-6-16T02:41:18Z
2023-06-16T00:42:07Z,42.805,6.029,13.3031,4.60090,2470.661,2023-6-16T02:44:21Z
2023-06-16T00:45:10Z,42.805,6.029,13.3030,4.60086,2470.67,2023-6-16T02:47:24Z
2023-06-16T00:48:13Z,42.805,6.029,13.3028,4.60084,2470.646,2023-6-16T02:50:27Z
2023-06-16T00:51:16Z,42.805,6.029,13.3032,4.60083,2470.693,2023-6-16T02:53:30Z
2023-06-16T00:54:19Z,42.805,6.029,13.3031,4.60087,2470.684,2023-6-16T02:56:33Z
2023-06-16T00:57:22Z,42.805,6.029,13.3029,4.60084,2470.693,2023-6-16T02:59:36Z
2023-06-16T01:00:25Z,42.805,6.029,13.3026,4.60084,2470.633,2023-6-16T03:02:40Z
2023-06-16T01:03:28Z,42.805,6.029,13.3031,4.60084,2470.646,2023-6-16T03:05:43Z
2023-06-16T01:06:31Z,42.805,6.029,13.3029,4.60084,2470.67,2023-6-16T03:08:46Z
2023-06-16T01:09:35Z,42.805,6.029,13.3026,4.60084,2470.693,2023-6-16T03:11:49Z
2023-06-16T01:12:38Z,42.805,6.029,13.3028,4.60084,2470.67,2023-6-16T03:14:52Z
2023-06-16T01:15:41Z,42.805,6.029,13.3028,4.60084,2470.684,2023-6-16T03:17:55Z
2023-06-16T01:18:44Z,42.805,6.029,13.3031,4.60083,2470.646,2023-6-16T03:20:58Z
2023-06-16T01:21:47Z,42.805,6.029,13.3031,4.60084,2470.646,2023-6-16T03:24:01Z
2023-06-16T01:24:50Z,42.805,6.029,13.3027,4.60084,2470.67,2023-6-16T03:27:04Z
2023-06-16T01:27:53Z,42.805,6.029,13.3027,4.60087,2470.646,2023-6-16T03:30:07Z
2023-06-16T01:30:56Z,42.805,6.029,13.3030,4.60084,2470.661,2023-6-16T03:33:10Z
2023-06-16T01:33:59Z,42.805,6.029,13.3031,4.60084,2470.67,2023-6-16T03:36:13Z
2023-06-16T01:37:02Z,42.805,6.029,13.3032,4.60085,2470.646,2023-6-16T03:39:17Z
2023-06-16T01:40:05Z,42.805,6.029,13.3026,4.60087,2470.67,2023-6-16T03:42:20Z
2023-06-16T01:43:08Z,42.805,6.029,13.3026,4.60084,2470.67,2023-6-16T03:45:23Z
2023-06-16T01:46:12Z,42.805,6.029,13.3031,4.60084,2470.684,2023-6-16T03:48:26Z
2023-06-16T01:49:15Z,42.805,6.029,13.3031,4.60084,2470.684,2023-6-16T03:51:29Z
2023-06-16T01:52:18Z,42.805,6.029,13.3025,4.60086,2470.684,2023-6-16T03:54:32Z
2023-06-16T01:55:21Z,42.805,6.029,13.3026,4.60086,2470.684,2023-6-16T03:57:35Z
2023-06-16T01:58:24Z,42.805,6.029,13.3028,4.60084,2470.684,2023-6-16T04:00:38Z
2023-06-16T02:01:27Z,42.805,6.029,13.3026,4.60085,2470.693,2023-6-16T04:03:41Z
2023-06-16T02:04:30Z,42.805,6.029,13.3026,4.60087,2470.67,2023-6-16T04:06:44Z
2023-06-16T02:07:33Z,42.805,6.029,13.3026,4.60086,2470.693,2023-6-16T04:09:47Z
2023-06-16T02:10:36Z,42.805,6.029,13.3027,4.60088,2470.693,2023-6-16T04:12:50Z
2023-06-16T02:13:39Z,42.805,6.029,13.3029,4.60085,2470.693,2023-6-16T04:15:53Z
2023-06-16T02:16:42Z,42.805,6.029,13.3026,4.60085,2470.754,2023-6-16T04:18:57Z
2023-06-16T02:19:45Z,42.805,6.029,13.3026,4.60089,2470.693,2023-6-16T04:22:00Z
2023-06-16T02:22:49Z,42.805,6.029,13.3029,4.60089,2470.74,2023-6-16T04:25:03Z
2023-06-16T02:25:52Z,42.805,6.029,13.3023,4.60085,2470.73,2023-6-16T04:28:06Z
2023-06-16T02:28:55Z,42.805,6.029,13.3032,4.60085,2470.693,2023-6-16T04:31:09Z
2023-06-16T02:31:58Z,42.805,6.029,13.3026,4.60088,2470.679,2023-6-16T04:34:12Z
2023-06-16T02:35:01Z,42.805,6.029,13.3031,4.60087,2470.693,2023-6-16T04:37:15Z
2023-06-16T02:38:04Z,42.805,6.029,13.3025,4.60086,2470.693,2023-6-16T04:40:18Z
2023-06-16T02:41:07Z,42.805,6.029,13.3027,4.60084,2470.693,2023-6-16T04:43:21Z
2023-06-16T02:44:10Z,42.805,6.029,13.3027,4.60090,2470.693,2023-6-16T04:46:24Z
2023-06-16T02:47:13Z,42.805,6.029,13.3025,4.60090,2470.707,2023-6-16T04:49:27Z
2023-06-16T02:50:16Z,42.805,6.029,13.3027,4.60086,2470.74,2023-6-16T04:52:30Z
2023-06-16T02:53:19Z,42.805,6.029,13.3027,4.60087,2470.67,2023-6-16T04:55:34Z
2023-06-16T02:56:22Z,42.805,6.029,13.3025,4.60085,2470.754,2023-6-16T04:58:37Z
2023-06-16T02:59:26Z,42.805,6.029,13.3026,4.60086,2470.717,2023-6-16T05:01:40Z
2023-06-16T03:02:29Z,42.805,6.029,13.3031,4.60086,2470.74,2023-6-16T05:04:43Z
2023-06-16T03:05:32Z,42.805,6.029,13.3028,4.60087,2470.754,2023-6-16T05:07:46Z
2023-06-16T03:08:35Z,42.805,6.029,13.3031,4.60087,2470.777,2023-6-16T05:10:49Z
2023-06-16T03:11:38Z,42.805,6.029,13.3029,4.60089,2470.74,2023-6-16T05:13:52Z
2023-06-16T03:14:41Z,42.805,6.029,13.3030,4.60085,2470.693,2023-6-16T05:16:55Z
2023-06-16T03:17:44Z,42.805,6.029,13.3028,4.60084,2470.74,2023-6-16T05:19:58Z
2023-06-16T03:20:47Z,42.805,6.029,13.3028,4.60087,2470.73,2023-6-16T05:23:01Z
2023-06-16T03:23:50Z,42.805,6.029,13.3033,4.60085,2470.74,2023-6-16T05:26:04Z
2023-06-16T03:26:53Z,42.805,6.029,13.3029,4.60087,2470.717,2023-6-16T05:29:07Z
2023-06-16T03:29:56Z,42.805,6.029,13.3024,4.60086,2470.74,2023-6-16T05:32:11Z
2023-06-16T03:32:59Z,42.805,6.029,13.3029,4.60089,2470.777,2023-6-16T05:35:14Z
2023-06-16T03:36:03Z,42.805,6.029,13.3025,4.60086,2470.74,2023-6-16T05:38:17Z
2023-06-16T03:39:06Z,42.805,6.029,13.3031,4.60086,2470.74,2023-6-16T05:41:20Z
2023-06-16T03:42:09Z,42.805,6.029,13.3031,4.60086,2470.717,2023-6-16T05:44:23Z
2023-06-16T03:45:12Z,42.805,6.029,13.3028,4.60087,2470.74,2023-6-16T05:47:26Z
2023-06-16T03:48:15Z,42.805,6.029,13.3031,4.60092,2470.777,2023-6-16T05:50:29Z
2023-06-16T03:51:18Z,42.805,6.029,13.3026,4.60086,2470.763,2023-6-16T05:53:32Z
2023-06-16T03:54:21Z,42.805,6.029,13.3027,4.60085,2470.74,2023-6-16T05:56:35Z
2023-06-16T03:57:24Z,42.805,6.029,13.3026,4.60086,2470.74,2023-6-16T05:59:38Z
2023-06-16T04:00:27Z,42.805,6.029,13.3028,4.60087,2470.787,2023-6-16T06:02:41Z
2023-06-16T04:03:30Z,42.805,6.029,13.3024,4.60084,2470.74,2023-6-16T06:05:44Z
2023-06-16T04:06:33Z,42.805,6.029,13.3024,4.60085,2470.763,2023-6-16T06:08:48Z
2023-06-16T04:09:36Z,42.805,6.029,13.3027,4.60085,2470.787,2023-6-16T06:11:51Z
2023-06-16T04:12:39Z,42.805,6.029,13.3031,4.60085,2470.777,2023-6-16T06:14:54Z
2023-06-16T04:15:43Z,42.805,6.029,13.3030,4.60087,2470.8,2023-6-16T06:17:57Z
2023-06-16T04:18:46Z,42.805,6.029,13.3027,4.60085,2470.74,2023-6-16T06:21:00Z
2023-06-16T04:21:49Z,42.805,6.029,13.3027,4.60085,2470.74,2023-6-16T06:24:03Z
2023-06-16T04:24:52Z,42.805,6.029,13.3031,4.60088,2470.763,2023-6-16T06:27:06Z
2023-06-16T04:27:55Z,42.805,6.029,13.3026,4.60089,2470.763,2023-6-16T06:30:09Z
2023-06-16T04:30:58Z,42.805,6.029,13.3029,4.60084,2470.763,2023-6-16T06:33:12Z
2023-06-16T04:34:01Z,42.805,6.029,13.3027,4.60089,2470.787,2023-6-16T06:36:15Z
2023-06-16T04:37:04Z,42.805,6.029,13.3029,4.60085,2470.8,2023-6-16T06:39:18Z
2023-06-16T04:40:07Z,42.805,6.029,13.3027,4.60087,2470.763,2023-6-16T06:42:21Z
2023-06-16T04:43:10Z,42.805,6.029,13.3034,4.60085,2470.777,2023-6-16T06:45:24Z
2023-06-16T04:46:13Z,42.805,6.029,13.3023,4.60085,2470.777,2023-6-16T06:48:28Z
2023-06-16T04:49:16Z,42.805,6.029,13.3029,4.60084,2470.787,2023-6-16T06:51:31Z
2023-06-16T04:52:20Z,42.805,6.029,13.3026,4.60086,2470.787,2023-6-16T06:54:34Z
2023-06-16T04:55:23Z,42.805,6.029,13.3025,4.60084,2470.787,2023-6-16T06:57:37Z
2023-06-16T04:58:26Z,42.805,6.029,13.3031,4.60084,2470.787,2023-6-16T07:00:40Z
2023-06-16T05:01:29Z,42.805,6.029,13.3024,4.60084,2470.81,2023-6-16T07:03:43Z
2023-06-16T05:04:32Z,42.805,6.029,13.3031,4.60087,2470.787,2023-6-16T07:06:46Z
2023-06-16T05:07:35Z,42.805,6.029,13.3026,4.60084,2470.787,2023-6-16T07:09:49Z
2023-06-16T05:10:38Z,42.805,6.029,13.3030,4.60086,2470.777,2023-6-16T07:12:52Z
2023-06-16T05:13:41Z,42.805,6.029,13.3026,4.60086,2470.787,2023-6-16T07:15:55Z
2023-06-16T05:16:44Z,42.805,6.029,13.3026,4.60086,2470.787,2023-6-16T07:18:58Z
2023-06-16T05:19:47Z,42.805,6.029,13.3026,4.60085,2470.81,2023-6-16T07:22:01Z
2023-06-16T05:22:50Z,42.805,6.029,13.3028,4.60087,2470.787,2023-6-16T07:25:05Z
2023-06-16T05:25:53Z,42.805,6.029,13.3025,4.60084,2470.787,2023-6-16T07:28:08Z
2023-06-16T05:28:57Z,42.805,6.029,13.3026,4.60086,2470.8,2023-6-16T07:31:11Z
2023-06-16T05:32:00Z,42.805,6.029,13.3027,4.60086,2470.777,2023-6-16T07:34:14Z
2023-06-16T05:35:03Z,42.805,6.029,13.3027,4.60086,2470.787,2023-6-16T07:37:17Z
2023-06-16T05:38:06Z,42.805,6.029,13.3024,4.60086,2470.763,2023-6-16T07:40:20Z
2023-06-16T05:41:09Z,42.805,6.029,13.3031,4.60087,2470.787,2023-6-16T07:43:23Z
2023-06-16T05:44:12Z,42.805,6.029,13.3024,4.60087,2470.787,2023-6-16T07:46:26Z
2023-06-16T05:47:15Z,42.805,6.029,13.3024,4.60084,2470.81,2023-6-16T07:49:29Z
2023-06-16T05:50:18Z,42.805,6.029,13.3029,4.60085,2470.8,2023-6-16T07:52:32Z
2023-06-16T05:53:21Z,42.805,6.029,13.3026,4.60086,2470.824,2023-6-16T07:55:35Z
2023-06-16T05:56:24Z,42.805,6.029,13.3030,4.60086,2470.763,2023-6-16T07:58:38Z
2023-06-16T05:59:27Z,42.805,6.029,13.3024,4.60085,2470.787,2023-6-16T08:01:42Z
2023-06-16T06:02:30Z,42.805,6.029,13.3025,4.60084,2470.787,2023-6-16T08:04:45Z
2023-06-16T06:05:34Z,42.805,6.029,13.3027,4.60084,2470.8,2023-6-16T08:07:48Z
2023-06-16T06:08:37Z,42.805,6.029,13.3025,4.60084,2470.777,2023-6-16T08:10:51Z
2023-06-16T06:11:40Z,42.805,6.029,13.3029,4.60084,2470.81,2023-6-16T08:13:54Z
2023-06-16T06:14:43Z,42.805,6.029,13.3028,4.60084,2470.787,2023-6-16T08:16:57Z
2023-06-16T06:17:46Z,42.805,6.029,13.3029,4.60084,2470.777,2023-6-16T08:20:00Z
2023-06-16T06:20:49Z,42.805,6.029,13.3024,4.60084,2470.763,2023-6-16T08:23:03Z
2023-06-16T06:23:52Z,42.805,6.029,13.3024,4.60086,2470.763,2023-6-16T08:26:06Z
2023-06-16T06:26:55Z,42.805,6.029,13.3023,4.60086,2470.763,2023-6-16T08:29:09Z
2023-06-16T06:29:58Z,42.805,6.029,13.3027,4.60093,2470.777,2023-6-16T08:32:12Z
2023-06-16T06:33:00Z,42.805,6.029,13.3024,4.60086,2470.773,2023-6-16T08:35:14Z
2023-06-16T06:36:03Z,42.805,6.029,13.3031,4.60084,2470.763,2023-6-16T08:38:17Z
2023-06-16T06:39:06Z,42.805,6.029,13.3025,4.60086,2470.787,2023-6-16T08:41:20Z
2023-06-16T06:42:09Z,42.805,6.029,13.3029,4.60085,2470.763,2023-6-16T08:44:23Z
2023-06-16T06:45:12Z,42.805,6.029,13.3026,4.60087,2470.773,2023-6-16T08:47:26Z
2023-06-16T06:48:15Z,42.805,6.029,13.3027,4.60085,2470.787,2023-6-16T08:50:29Z
2023-06-16T06:51:18Z,42.805,6.029,13.3026,4.60085,2470.8,2023-6-16T08:53:32Z
2023-06-16T06:54:21Z,42.805,6.029,13.3026,4.60087,2470.787,2023-6-16T08:56:36Z
2023-06-16T06:57:24Z,42.805,6.029,13.3023,4.60087,2470.763,2023-6-16T08:59:39Z
2023-06-16T07:00:27Z,42.805,6.029,13.3029,4.60087,2470.777,2023-6-16T09:02:42Z
2023-06-16T07:03:31Z,42.805,6.029,13.3030,4.60086,2470.8,2023-6-16T09:05:45Z
2023-06-16T07:06:34Z,42.805,6.029,13.3027,4.60085,2470.763,2023-6-16T09:08:48Z
2023-06-16T07:09:37Z,42.805,6.029,13.3025,4.60089,2470.763,2023-6-16T09:11:51Z
2023-06-16T07:12:40Z,42.805,6.029,13.3027,4.60085,2470.8,2023-6-16T09:14:54Z
2023-06-16T07:15:43Z,42.805,6.029,13.3027,4.60086,2470.81,2023-6-16T09:17:57Z
2023-06-16T07:18:46Z,42.805,6.029,13.3024,4.60086,2470.8,2023-6-16T09:21:00Z
2023-06-16T07:21:49Z,42.805,6.029,13.3026,4.60086,2470.777,2023-6-16T09:24:03Z
2023-06-16T07:24:52Z,42.805,6.029,13.3028,4.60085,2470.763,2023-6-16T09:27:06Z
2023-06-16T07:27:55Z,42.805,6.029,13.3022,4.60086,2470.763,2023-6-16T09:30:09Z
2023-06-16T07:30:58Z,42.805,6.029,13.3025,4.60085,2470.763,2023-6-16T09:33:12Z
2023-06-16T07:34:01Z,42.805,6.029,13.3026,4.60086,2470.777,2023-6-16T09:36:16Z
2023-06-16T07:37:04Z,42.805,6.029,13.3025,4.60085,2470.754,2023-6-16T09:39:19Z
2023-06-16T07:40:08Z,42.805,6.029,13.3023,4.60092,2470.763,2023-6-16T09:42:22Z
2023-06-16T07:43:11Z,42.805,6.029,13.3021,4.60085,2470.763,2023-6-16T09:45:25Z
2023-06-16T07:46:14Z,42.805,6.029,13.3026,4.60084,2470.763,2023-6-16T09:48:28Z
2023-06-16T07:49:17Z,42.805,6.029,13.3029,4.60084,2470.74,2023-6-16T09:51:31Z
2023-06-16T07:52:20Z,42.805,6.029,13.3031,4.60086,2470.74,2023-6-16T09:54:34Z
2023-06-16T07:55:23Z,42.805,6.029,13.3027,4.60084,2470.754,2023-6-16T09:57:37Z
2023-06-16T07:58:26Z,42.805,6.029,13.3026,4.60085,2470.74,2023-6-16T10:00:40Z
2023-06-16T08:01:29Z,42.805,6.029,13.3027,4.60087,2470.754,2023-6-16T10:03:43Z
2023-06-16T08:04:32Z,42.805,6.029,13.3027,4.60087,2470.74,2023-6-16T10:06:46Z
2023-06-16T08:07:35Z,42.805,6.029,13.3029,4.60086,2470.74,2023-6-16T10:09:49Z
2023-06-16T08:10:38Z,42.805,6.029,13.3026,4.60084,2470.754,2023-6-16T10:12:53Z
2023-06-16T08:13:41Z,42.805,6.029,13.3028,4.60084,2470.754,2023-6-16T10:15:56Z
2023-06-16T08:16:45Z,42.805,6.029,13.3028,4.60084,2470.74,2023-6-16T10:18:59Z
2023-06-16T08:19:48Z,42.805,6.029,13.3029,4.60085,2470.74,2023-6-16T10:22:02Z
2023-06-16T08:22:51Z,42.805,6.029,13.3029,4.60084,2470.754,2023-6-16T10:25:05Z
2023-06-16T08:25:54Z,42.805,6.029,13.3029,4.60085,2470.754,2023-6-16T10:28:08Z
2023-06-16T08:28:57Z,42.805,6.029,13.3026,4.60084,2470.74,2023-6-16T10:31:11Z
2023-06-16T08:31:58Z,42.805,6.029,13.3028,4.60084,2470.717,2023-6-16T10:34:13Z
2023-06-16T08:35:01Z,42.805,6.029,13.3026,4.60088,2470.707,2023-6-16T10:37:16Z
2023-06-16T08:38:05Z,42.805,6.029,13.3029,4.60085,2470.707,2023-6-16T10:40:19Z
2023-06-16T08:41:08Z,42.805,6.029,13.3026,4.60084,2470.73,2023-6-16T10:43:22Z
2023-06-16T08:44:11Z,42.805,6.029,13.3024,4.60086,2470.717,2023-6-16T10:46:25Z
2023-06-16T08:47:14Z,42.805,6.029,13.3029,4.60085,2470.717,2023-6-16T10:49:28Z
2023-06-16T08:50:17Z,42.805,6.029,13.3027,4.60083,2470.693,2023-6-16T10:52:31Z
2023-06-16T08:53:20Z,42.805,6.029,13.3026,4.60084,2470.717,2023-6-16T10:55:34Z
2023-06-16T08:56:23Z,42.805,6.029,13.3026,4.60084,2470.693,2023-6-16T10:58:37Z
2023-06-16T08:59:26Z,42.805,6.029,13.3029,4.60084,2470.754,2023-6-16T11:01:40Z
2023-06-16T09:02:29Z,42.805,6.029,13.3022,4.60095,2470.73,2023-6-16T11:04:43Z
2023-06-16T09:05:32Z,42.805,6.029,13.3026,4.60086,2470.693,2023-6-16T11:07:47Z
2023-06-16T09:08:35Z,42.805,6.029,13.3024,4.60086,2470.693,2023-6-16T11:10:50Z
2023-06-16T09:11:39Z,42.805,6.029,13.3027,4.60085,2470.717,2023-6-16T11:13:53Z
2023-06-16T09:14:42Z,42.805,6.029,13.3027,4.60084,2470.693,2023-6-16T11:16:56Z
2023-06-16T09:17:45Z,42.805,6.029,13.3029,4.60090,2470.707,2023-6-16T11:19:59Z
2023-06-16T09:20:48Z,42.805,6.029,13.3026,4.60093,2470.693,2023-6-16T11:23:02Z
2023-06-16T09:23:51Z,42.805,6.029,13.3029,4.60086,2470.684,2023-6-16T11:26:05Z
2023-06-16T09:26:54Z,42.805,6.029,13.3024,4.60087,2470.684,2023-6-16T11:29:08Z
2023-06-16T09:29:57Z,42.805,6.029,13.3025,4.60091,2470.693,2023-6-16T11:32:11Z
2023-06-16T09:33:00Z,42.805,6.029,13.3026,4.60087,2470.693,2023-6-16T11:35:14Z
2023-06-16T09:36:03Z,42.805,6.029,13.3029,4.60084,2470.693,2023-6-16T11:38:17Z
2023-06-16T09:39:06Z,42.805,6.029,13.3029,4.60085,2470.67,2023-6-16T11:41:20Z
2023-06-16T09:42:09Z,42.805,6.029,13.3029,4.60086,2470.624,2023-6-16T11:44:24Z
2023-06-16T09:45:12Z,42.805,6.029,13.3029,4.60089,2470.693,2023-6-16T11:47:27Z
2023-06-16T09:48:16Z,42.805,6.029,13.3031,4.60086,2470.67,2023-6-16T11:50:30Z
2023-06-16T09:51:19Z,42.805,6.029,13.3026,4.60085,2470.67,2023-6-16T11:53:33Z
2023-06-16T09:54:22Z,42.805,6.029,13.3031,4.60086,2470.67,2023-6-16T11:56:36Z
2023-06-16T09:57:25Z,42.805,6.029,13.3030,4.60086,2470.717,2023-6-16T11:59:39Z
2023-06-16T10:00:28Z,42.805,6.029,13.3029,4.60087,2470.684,2023-6-16T12:02:42Z
2023-06-16T10:03:31Z,42.805,6.029,13.3026,4.60085,2470.67,2023-6-16T12:05:45Z
2023-06-16T10:06:34Z,42.805,6.029,13.3026,4.60084,2470.693,2023-6-16T12:08:48Z
2023-06-16T10:09:37Z,42.805,6.029,13.3026,4.60085,2470.684,2023-6-16T12:11:51Z
2023-06-16T10:12:40Z,42.805,6.029,13.3028,4.60088,2470.646,2023-6-16T12:14:54Z
2023-06-16T10:15:43Z,42.805,6.029,13.3025,4.60085,2470.67,2023-6-16T12:17:58Z
2023-06-16T10:18:46Z,42.805,6.029,13.3027,4.60085,2470.693,2023-6-16T12:21:01Z
2023-06-16T10:21:49Z,42.805,6.029,13.3023,4.60084,2470.67,2023-6-16T12:24:04Z
2023-06-16T10:24:53Z,42.805,6.029,13.3028,4.60086,2470.684,2023-6-16T12:27:07Z
2023-06-16T10:27:56Z,42.805,6.029,13.3029,4.60085,2470.646,2023-6-16T12:30:10Z
2023-06-16T10:30:57Z,42.805,6.029,13.3031,4.60089,2470.646,2023-6-16T12:33:11Z
2023-06-16T10:34:00Z,42.805,6.029,13.3026,4.60085,2470.637,2023-6-16T12:36:14Z
2023-06-16T10:37:03Z,42.805,6.029,13.3025,4.60087,2470.624,2023-6-16T12:39:17Z
2023-06-16T10:40:06Z,42.805,6.029,13.3029,4.60086,2470.661,2023-6-16T12:42:20Z
2023-06-16T10:43:09Z,42.805,6.029,13.3029,4.60086,2470.67,2023-6-16T12:45:24Z
2023-06-16T10:46:12Z,42.805,6.029,13.3031,4.60086,2470.661,2023-6-16T12:48:27Z
2023-06-16T10:49:16Z,42.805,6.029,13.3030,4.60084,2470.661,2023-6-16T12:51:30Z
2023-06-16T10:52:19Z,42.805,6.029,13.3026,4.60086,2470.661,2023-6-16T12:54:33Z
2023-06-16T10:55:22Z,42.805,6.029,13.3030,4.60090,2470.646,2023-6-16T12:57:36Z
2023-06-16T10:58:25Z,42.805,6.029,13.3026,4.60088,2470.646,2023-6-16T13:00:39Z
2023-06-16T11:01:28Z,42.805,6.029,13.3026,4.60087,2470.637,2023-6-16T13:03:42Z
2023-06-16T11:04:31Z,42.805,6.029,13.3028,4.60087,2470.646,2023-6-16T13:06:45Z
2023-06-16T11:07:34Z,42.805,6.029,13.3027,4.60087,2470.661,2023-6-16T13:09:48Z
2023-06-16T11:10:37Z,42.805,6.029,13.3026,4.60086,2470.637,2023-6-16T13:12:51Z
2023-06-16T11:13:40Z,42.805,6.029,13.3024,4.60086,2470.624,2023-6-16T13:15:54Z
2023-06-16T11:16:43Z,42.805,6.029,13.3027,4.60087,2470.6,2023-6-16T13:18:58Z
2023-06-16T11:19:46Z,42.805,6.029,13.3027,4.60085,2470.661,2023-6-16T13:22:01Z
2023-06-16T11:22:50Z,42.805,6.029,13.3029,4.60086,2470.661,2023-6-16T13:25:04Z
2023-06-16T11:25:53Z,42.805,6.029,13.3028,4.60086,2470.661,2023-6-16T13:28:07Z
2023-06-16T11:28:56Z,42.805,6.029,13.3025,4.60089,2470.637,2023-6-16T13:31:10Z
2023-06-16T11:31:59Z,42.805,6.029,13.3024,4.60088,2470.624,2023-6-16T13:34:13Z
2023-06-16T11:35:02Z,42.805,6.029,13.3025,4.60086,2470.624,2023-6-16T13:37:16Z
2023-06-16T11:38:05Z,42.805,6.029,13.3028,4.60086,2470.646,2023-6-16T13:40:19Z
2023-06-16T11:41:08Z,42.805,6.029,13.3026,4.60090,2470.624,2023-6-16T13:43:22Z
2023-06-16T11:44:11Z,42.805,6.029,13.3030,4.60086,2470.624,2023-6-16T13:46:25Z
2023-06-16T11:47:14Z,42.805,6.029,13.3025,4.60089,2470.646,2023-6-16T13:49:28Z
2023-06-16T11:50:17Z,42.805,6.029,13.3029,4.60086,2470.6,2023-6-16T13:52:32Z
2023-06-16T11:53:20Z,42.805,6.029,13.3029,4.60087,2470.577,2023-6-16T13:55:35Z
2023-06-16T11:56:23Z,42.805,6.029,13.3031,4.60087,2470.6,2023-6-16T13:58:38Z
2023-06-16T11:59:27Z,42.805,6.029,13.3029,4.60086,2470.624,2023-6-16T14:01:41Z
2023-06-16T12:02:30Z,42.805,6.029,13.3027,4.60085,2470.646,2023-6-16T14:04:44Z
2023-06-16T12:05:33Z,42.805,6.029,13.3025,4.60091,2470.637,2023-6-16T14:07:47Z
2023-06-16T12:08:36Z,42.805,6.029,13.3027,4.60087,2470.624,2023-6-16T14:10:50Z
2023-06-16T12:11:39Z,42.805,6.029,13.3025,4.60086,2470.6,2023-6-16T14:13:53Z
2023-06-16T12:14:42Z,42.805,6.029,13.3026,4.60085,2470.624,2023-6-16T14:16:56Z
2023-06-16T12:17:45Z,42.805,6.029,13.3029,4.60092,2470.614,2023-6-16T14:19:59Z
2023-06-16T12:20:48Z,42.805,6.029,13.3029,4.60086,2470.577,2023-6-16T14:23:02Z
2023-06-16T12:23:51Z,42.805,6.029,13.3025,4.60086,2470.646,2023-6-16T14:26:05Z
2023-06-16T12:26:54Z,42.805,6.029,13.3026,4.60086,2470.624,2023-6-16T14:29:09Z
2023-06-16T12:29:57Z,42.805,6.029,13.3026,4.60085,2470.624,2023-6-16T14:32:12Z
2023-06-16T12:33:01Z,42.805,6.029,13.3026,4.60085,2470.646,2023-6-16T14:35:15Z
2023-06-16T12:36:04Z,42.805,6.029,13.3024,4.60094,2470.563,2023-6-16T14:38:18Z
2023-06-16T12:39:07Z,42.805,6.029,13.3032,4.60085,2470.624,2023-6-16T14:41:21Z
2023-06-16T12:42:10Z,42.805,6.029,13.3026,4.60089,2470.6,2023-6-16T14:44:24Z
2023-06-16T12:45:13Z,42.805,6.029,13.3029,4.60084,2470.637,2023-6-16T14:47:27Z
2023-06-16T12:48:16Z,42.805,6.029,13.3027,4.60086,2470.646,2023-6-16T14:50:30Z
2023-06-16T12:51:19Z,42.805,6.029,13.3027,4.60092,2470.6,2023-6-16T14:53:33Z
2023-06-16T12:54:22Z,42.805,6.029,13.3024,4.60089,2470.614,2023-6-16T14:56:36Z
2023-06-16T12:57:25Z,42.805,6.029,13.3025,4.60085,2470.646,2023-6-16T14:59:39Z
2023-06-16T13:00:28Z,42.805,6.029,13.3026,4.60087,2470.6,2023-6-16T15:02:43Z
2023-06-16T13:03:31Z,42.805,6.029,13.3028,4.60085,2470.586,2023-6-16T15:05:46Z
2023-06-16T13:06:34Z,42.805,6.029,13.3026,4.60085,2470.624,2023-6-16T15:08:49Z
2023-06-16T13:09:38Z,42.805,6.029,13.3026,4.60087,2470.624,2023-6-16T15:11:52Z
2023-06-16T13:12:41Z,42.805,6.029,13.3030,4.60088,2470.624,2023-6-16T15:14:55Z
2023-06-16T13:15:44Z,42.805,6.029,13.3025,4.60086,2470.6,2023-6-16T15:17:58Z
2023-06-16T13:18:47Z,42.805,6.029,13.3031,4.60089,2470.624,2023-6-16T15:21:01Z
2023-06-16T13:21:50Z,42.805,6.029,13.3028,4.60086,2470.624,2023-6-16T15:24:04Z
2023-06-16T13:24:53Z,42.805,6.029,13.3029,4.60087,2470.624,2023-6-16T15:27:07Z
2023-06-16T13:27:56Z,42.805,6.029,13.3029,4.60088,2470.624,2023-6-16T15:30:10Z
2023-06-16T13:30:59Z,42.805,6.029,13.3031,4.60088,2470.624,2023-6-16T15:33:13Z
2023-06-16T13:34:02Z,42.805,6.029,13.3026,4.60096,2470.661,2023-6-16T15:36:16Z
2023-06-16T13:37:05Z,42.805,6.029,13.3030,4.60086,2470.646,2023-6-16T15:39:20Z
2023-06-16T13:40:08Z,42.805,6.029,13.3028,4.60086,2470.624,2023-6-16T15:42:23Z
2023-06-16T13:43:12Z,42.805,6.029,13.3026,4.60086,2470.624,2023-6-16T15:45:26Z
2023-06-16T13:46:15Z,42.805,6.029,13.3029,4.60086,2470.637,2023-6-16T15:48:29Z
2023-06-16T13:49:18Z,42.805,6.029,13.3029,4.60087,2470.661,2023-6-16T15:51:32Z
2023-06-16T13:52:21Z,42.805,6.029,13.3031,4.60092,2470.637,2023-6-16T15:54:35Z
2023-06-16T13:55:24Z,42.805,6.029,13.3024,4.60087,2470.661,2023-6-16T15:57:38Z
2023-06-16T13:58:27Z,42.805,6.029,13.3027,4.60087,2470.624,2023-6-16T16:00:41Z
2023-06-16T14:01:30Z,42.805,6.029,13.3025,4.60085,2470.624,2023-6-16T16:03:44Z
2023-06-16T14:04:33Z,42.805,6.029,13.3027,4.60095,2470.646,2023-6-16T16:06:47Z
2023-06-16T14:07:36Z,42.805,6.029,13.3026,4.60085,2470.661,2023-6-16T16:09:50Z
2023-06-16T14:10:39Z,42.805,6.029,13.3031,4.60090,2470.646,2023-6-16T16:12:53Z
2023-06-16T14:13:42Z,42.805,6.029,13.3030,4.60089,2470.684,2023-6-16T16:15:57Z
2023-06-16T14:16:45Z,42.805,6.029,13.3021,4.60091,2470.661,2023-6-16T16:19:00Z
2023-06-16T14:19:48Z,42.805,6.029,13.3029,4.60089,2470.661,2023-6-16T16:22:03Z
2023-06-16T14:22:52Z,42.805,6.029,13.3029,4.60087,2470.6,2023-6-16T16:25:06Z
2023-06-16T14:25:55Z,42.805,6.029,13.3031,4.60089,2470.684,2023-6-16T16:28:09Z
2023-06-16T14:28:58Z,42.805,6.029,13.3023,4.60092,2470.67,2023-6-16T16:31:12Z
2023-06-16T14:32:00Z,42.805,6.029,13.3025,4.60099,2470.633,2023-6-16T16:34:14Z
2023-06-16T14:35:03Z,42.805,6.029,13.3025,4.60092,2470.693,2023-6-16T16:37:17Z
2023-06-16T14:38:06Z,42.805,6.029,13.3029,4.60089,2470.684,2023-6-16T16:40:20Z
2023-06-16T14:41:09Z,42.805,6.029,13.3027,4.60089,2470.67,2023-6-16T16:43:23Z
2023-06-16T14:44:12Z,42.805,6.029,13.3026,4.60088,2470.67,2023-6-16T16:46:26Z
2023-06-16T14:47:15Z,42.805,6.029,13.3027,4.60087,2470.67,2023-6-16T16:49:29Z
2023-06-16T14:50:18Z,42.805,6.029,13.3026,4.60087,2470.707,2023-6-16T16:52:32Z
2023-06-16T14:53:21Z,42.805,6.029,13.3030,4.60088,2470.693,2023-6-16T16:55:36Z
2023-06-16T14:56:24Z,42.805,6.029,13.3024,4.60089,2470.67,2023-6-16T16:58:39Z
2023-06-16T14:59:27Z,42.805,6.029,13.3029,4.60091,2470.693,2023-6-16T17:01:42Z
2023-06-16T15:02:31Z,42.805,6.029,13.3030,4.60090,2470.646,2023-6-16T17:04:45Z
2023-06-16T15:05:34Z,42.805,6.029,13.3025,4.60094,2470.693,2023-6-16T17:07:48Z
2023-06-16T15:08:37Z,42.805,6.029,13.3024,4.60095,2470.717,2023-6-16T17:10:51Z
2023-06-16T15:11:40Z,42.805,6.029,13.3030,4.60096,2470.74,2023-6-16T17:13:54Z
2023-06-16T15:14:43Z,42.805,6.029,13.3026,4.60097,2470.707,2023-6-16T17:16:57Z